Orbital Elements at Epoch 2459200.5 (2020-Dec-17.0) TDB
Reference: JPL 22 (heliocentric ecliptic J2000)
Element | Value | Uncertainty (1-sigma) | Units |
e | .1141664222983091 | 4.0832e-08 | |
a | 3.120666817721398 | 2.6603e-08 | au |
q | 2.764391451957096 | 1.3584e-07 | au |
i | 12.07107816348617 | 4.5817e-06 | deg |
node | 170.4993223951531 | 1.9298e-05 | deg |
peri | 227.523558894298 | 2.7557e-05 | deg |
M | 300.5271607718158 | 2.1965e-05 | deg |
tp | 2459533.148602239403 (2021-Nov-14.64860224) | 0.00012481 | TDB |
period | 2013.582979395306 5.51 | 2.5748e-05 7.049e-08 | d yr |
n | .1787857782290704 | 2.2861e-09 | deg/d |
Q | 3.476942183485699 | 2.964e-08 | au |
|
| | Orbit Determination Parameters
Additional Information
|